Location: Buffign�court
(47.8126°N, 6.0176°E)
Time: 02:31:00
(UTC+00:00)

Cosmos 1707 - Pass Details

Date: 16 June 2021
Orbit: 513 x 530 km, 82.5° (Epoch: 04 August)

Event Time Altitude Azimuth Distance (km) Brightness Sun altitude
Rises 20:54:34 0° 203° (SSW) 2,642 6.0 -10.0°
Reaches altitude 10° 20:56:45 10° 209° (SSW) 1,762 5.2 -10.3°
Maximum altitude 21:00:29 46° 283° (WNW) 721 3.8 -10.6°
Drops below altitude 10° 21:04:16 10° 358° (N) 1,785 6.4 -11.0°
Sets 21:06:30 0° 5° (N) 2,682 7.2 -11.2°
